{"data":{"norad_id":62741,"epoch":"2026-05-24T13:30:39.400128Z","epoch_age_seconds":116283,"freshness":"FRESH","line1":"1 62741U 25014G   26144.56295602  .00014955  00000+0  55168-3 0  9995","line2":"2 62741  43.0046  85.6904 0001664 276.3143  83.7519 15.27591322 74869","mean_motion":15.27591322,"eccentricity":0.0001664,"inclination_deg":43.0046,"raan_deg":85.6904,"arg_perigee_deg":276.3143,"mean_anomaly_deg":83.7519,"bstar":0.00055168,"rev_number":7486,"period_min":94.266050039789,"perigee_km":481.87349838288,"apogee_km":484.15688983308,"semimajor_km":6861.152194108,"source":"CELESTRAK","updated_at":"2026-05-25T13:38:19.739162Z"}}